Wind_Speed
2 2 2 2 2 3 2 3 3 3 2 3 3 3 3 3 2 1 1 2 2 1 1 1 1 2 2 2 3 3 3 3 3 3 2 2 2 2 3 3 3 3 3
1 2 1 1 1 2 2 2 2 3 3 3 2 2 2 1 1 1 1 1 1 1 1 1 2 2 3 3 4 4 4 3 3 3 3 3 3 3 3 4 4 3 3
1 0 0 1 2 1 1 1 2 2 2 2 2 1 1 1 0 1 1 1 1 1 1 1 2 3 4 4 5 5 4 4 4 4 4 4 4 4 4 4 4 3 3
1 1 1 2 3 2 2 2 2 2 1 1 1 1 1 1 0 1 1 1 0 1 2 2 2 3 3 3 3 4 4 4 4 4 5 5 4 5 5 5 5 5 4
2 2 2 3 3 3 3 3 3 2 1 1 1 1 1 1 1 1 2 1 1 2 2 2 2 3 2 1 1 3 3 3 4 4 5 5 5 5 5 5 6 6 5
2 2 2 3 3 3 3 3 3 3 2 2 2 2 2 2 2 3 3 3 3 3 2 2 3 3 2 2 1 2 3 3 4 4 5 5 5 6 6 6 6 6 6
3 3 3 3 3 3 3 3 3 4 4 4 4 3 4 4 3 4 4 4 4 3 3 3 3 3 3 2 2 3 3 3 4 4 4 5 5 6 6 6 6 6 6
4 4 3 4 3 3 3 3 4 4 4 4 4 5 5 5 5 5 5 4 4 4 4 3 3 3 3 3 3 3 3 4 4 4 4 5 5 6 6 6 6 7 7
4 5 4 4 4 4 4 4 4 5 5 4 4 5 5 5 5 5 5 6 6 5 4 4 3 3 4 3 3 4 4 4 5 5 5 5 5 5 5 6 6 6 7
4 5 4 4 5 5 5 5 5 5 5 5 5 5 5 5 5 5 5 5 5 5 5 4 4 5 4 3 3 3 4 4 4 5 6 6 5 5 5 5 6 7 7
4 5 5 5 5 6 5 5 5 5 5 5 5 5 5 5 5 5 5 5 6 5 5 5 5 5 5 3 3 4 4 5 5 5 6 6 6 6 6 6 7 8 8
5 5 5 5 6 6 6 6 6 6 6 6 5 6 5 5 5 5 5 6 6 6 6 6 5 5 5 4 4 4 5 5 5 5 6 6 7 7 7 7 8 8 8
6 6 6 6 6 6 6 6 6 6 6 6 5 5 6 6 6 6 6 6 6 6 6 6 6 5 5 5 5 5 5 6 5 5 6 7 7 7 8 8 8 9 9
7 7 7 6 6 6 6 6 6 6 6 6 6 6 6 7 7 7 7 7 7 7 7 7 6 6 6 6 6 7 7 7 7 7 7 7 7 8 8 8 8 9 9
8 7 7 7 7 7 7 7 7 7 7 7 7 7 7 7 7 7 7 7 7 7 7 7 7 7 7 7 7 7 7 7 7 7 7 7 8 8 8 8 7 8 8
9 8 8 8 8 7 7 7 7 7 7 7 7 7 7 7 8 8 7 8 8 8 7 7 7 7 7 7 7 7 7 7 7 7 7 6 7 7 7 7 7 8 8
10 9 9 9 8 8 8 8 8 7 7 7 7 7 7 8 8 8 8 8 7 7 7 7 7 7 7 8 7 7 7 7 6 6 6 6 6 5 6 6 7 7 7
11 10 10 10 10 10 10 10 9 8 7 8 8 8 8 8 8 8 7 7 6 6 7 7 7 7 7 8 8 7 7 6 6 6 6 6 5 5 6 6 7 7 7
11 11 11 11 11 10 10 10 10 9 9 8 8 8 8 8 8 8 6 7 7 7 7 7 7 7 7 7 7 6 6 6 6 6 6 6 6 6 6 7 7 7 8
11 11 11 11 11 11 10 10 10 10 10 9 8 8 8 8 8 6 6 6 7 6 7 7 7 6 6 6 6 7 7 7 7 7 7 7 7 7 7 7 7 8 8
11 11 11 12 12 11 10 10 10 10 9 9 9 9 9 8 7 6 6 6 6 6 6 6 6 6 6 6 6 7 7 7 7 7 7 7 7 7 7 8 8 8 9
12 12 12 12 11 11 11 10 10 10 10 10 9 9 9 8 8 7 7 7 7 7 6 6 6 6 6 6 7 7 7 7 7 7 7 7 7 7 8 8 8 9 9
12 12 13 12 11 11 11 11 11 11 11 11 10 10 10 9 9 8 8 8 8 7 6 6 7 6 6 6 6 6 7 7 8 8 7 8 8 8 9 9 9 9 10
12 12 12 13 12 11 11 11 11 11 11 12 11 10 10 10 9 9 8 8 8 7 7 7 6 6 6 6 6 6 7 7 7 8 8 9 9 9 9 10 10 11 10
12 11 12 12 12 11 11 11 11 11 11 12 11 11 11 9 9 9 8 8 7 7 7 7 7 7 7 7 7 7 7 8 8 8 9 10 10 10 10 10 10 10 10
12 12 12 13 12 12 12 12 12 12 12 12 11 11 10 10 9 8 8 8 8 7 8 8 8 8 8 8 8 8 8 8 8 9 9 10 10 10 10 10 10 10 10
Wind_Direction
109 98 90 77 63 46 61 66 57 53 61 66 73 82 101 116 129 126 128 92 75 81 51 14 333 326 305 267 245 227 233 238 233 227 233 236 236 229 216 211 213 220 218
118 97 80 51 35 35 54 57 31 41 53 54 56 63 67 90 129 133 129 106 78 77 38 357 326 320 298 271 249 237 234 233 233 232 237 239 233 229 223 223 223 229 234
166 139 67 336 341 344 352 342 4 24 37 58 61 64 50 25 313 151 123 108 57 43 5 344 328 319 311 282 250 234 229 225 228 235 240 239 234 230 227 226 225 237 233
211 250 268 301 317 316 286 283 299 328 347 37 45 48 20 334 294 180 169 213 336 334 327 316 323 329 327 310 239 219 223 229 233 234 239 239 237 238 238 242 245 242 241
225 257 268 288 309 303 274 273 273 283 303 318 327 323 313 287 279 254 223 252 289 301 307 310 313 324 330 328 208 212 220 226 236 236 240 238 235 241 241 243 247 247 246
233 261 269 288 298 304 284 268 266 273 286 290 294 295 294 282 281 274 257 270 276 280 283 292 296 305 317 306 259 235 225 231 237 238 236 233 233 240 243 245 247 244 241
242 266 271 284 289 292 286 281 270 275 279 284 286 290 296 292 283 277 270 276 278 284 283 289 291 297 300 296 281 250 235 238 243 241 241 239 239 240 242 245 249 246 243
247 266 272 274 280 283 280 278 279 279 288 289 283 283 288 288 287 280 279 282 280 279 277 286 291 291 294 287 277 263 251 246 245 248 246 244 243 244 244 246 248 247 244
256 266 263 259 264 275 278 278 281 286 288 285 280 286 288 284 281 280 276 277 278 275 272 282 290 287 299 287 269 259 254 250 250 253 250 244 247 248 244 246 247 250 250
254 255 257 259 264 274 278 277 281 285 286 281 280 285 286 284 283 282 276 274 275 273 275 278 280 284 298 298 285 279 261 258 259 255 248 247 247 246 246 249 250 253 256
252 252 254 258 265 271 275 276 280 282 278 278 280 282 286 284 282 280 273 269 269 268 272 278 281 285 289 291 284 275 269 276 270 257 250 250 248 248 249 253 255 256 260
248 251 254 263 267 267 269 273 275 278 281 281 280 277 282 285 285 281 274 269 268 270 274 276 280 281 282 277 273 273 272 277 271 257 251 254 258 259 258 257 257 261 264
254 256 255 261 266 269 272 274 275 277 282 279 277 276 278 282 284 280 273 269 268 272 273 274 272 270 275 272 272 269 267 269 265 260 256 258 262 263 262 265 264 262 262
258 261 257 259 264 270 275 279 279 277 278 281 282 280 277 280 284 279 273 266 265 269 272 274 272 267 271 271 269 266 264 261 263 260 257 257 260 263 263 266 264 264 265
254 252 250 257 263 268 271 276 279 280 280 281 282 281 280 281 283 277 272 267 266 265 268 274 273 268 269 270 270 268 267 265 264 260 258 260 263 263 265 266 263 261 263
253 252 253 256 263 266 269 273 280 281 282 284 285 285 284 281 279 281 276 269 264 262 267 273 274 273 270 270 270 269 267 266 262 261 258 260 265 263 257 259 259 260 261
253 255 255 256 262 265 266 272 278 281 281 284 285 285 285 283 280 277 275 268 265 266 267 272 275 274 273 269 266 265 263 263 263 262 258 260 262 259 258 264 265 263 264
258 257 260 260 262 263 265 269 275 280 282 285 287 285 284 283 280 274 271 270 268 269 267 265 268 265 265 263 263 262 263 264 262 259 257 258 261 261 261 265 267 268 270
262 264 268 267 267 265 265 266 271 276 280 281 284 283 281 280 278 277 277 274 273 266 259 263 266 265 264 262 261 264 266 264 262 257 257 258 260 261 265 270 269 272 274
261 265 267 269 269 270 269 267 269 274 277 276 281 286 283 276 277 278 280 275 276 270 261 261 265 267 267 265 265 264 263 262 260 258 258 257 258 262 264 273 272 272 276
263 264 267 268 267 269 270 270 271 272 275 273 278 281 284 279 275 271 277 281 284 278 270 267 268 269 264 262 264 264 262 259 256 256 256 256 259 264 269 275 272 274 275
266 266 263 266 267 271 270 271 273 272 273 272 275 276 276 276 273 272 277 278 279 277 275 268 267 267 263 262 264 265 262 257 254 254 257 260 264 270 276 280 280 280 278
267 266 265 264 265 268 270 272 272 272 271 273 277 276 273 271 267 268 272 274 273 273 270 266 264 266 262 261 261 263 263 261 257 259 263 264 267 272 278 282 283 282 280
265 265 263 262 264 266 267 269 270 269 269 272 276 276 275 274 274 272 274 273 269 268 269 265 260 259 260 261 261 263 266 267 263 264 269 271 273 274 277 279 281 282 281
262 262 264 266 265 264 267 267 267 268 268 270 271 272 273 276 279 279 276 272 267 267 266 261 259 260 261 263 267 266 267 268 265 267 271 274 277 277 278 281 282 283 283
263 264 267 269 269 266 268 267 265 266 269 269 267 266 269 273 277 281 282 276 270 267 271 270 263 262 265 265 269 268 267 267 267 270 273 277 280 281 280 279 285 286 286
Height
5893 5893 5892 5892 5891 5891 5890 5890 5889 5888 5888 5887 5886 5886 5886 5885 5885 5885 5885 5884 5884 5884 5884 5883 5883 5882 5882 5882 5882 5882 5881 5882 5882 5882 5882 5882 5882 5881 5881 5881 5881 5881 5881
5893 5893 5892 5892 5892 5891 5890 5890 5889 5888 5888 5887 5887 5886 5885 5885 5885 5885 5885 5884 5884 5884 5883 5883 5882 5882 5881 5880 5880 5880 5881 5881 5881 5881 5881 5881 5881 5881 5881 5881 5881 5881 5880
5893 5893 5892 5892 5891 5891 5890 5890 5889 5889 5888 5887 5887 5886 5885 5885 5885 5884 5884 5884 5884 5883 5883 5882 5882 5881 5880 5878 5877 5879 5880 5880 5881 5881 5881 5881 5880 5880 5880 5880 5880 5881 5880
5893 5892 5892 5891 5891 5890 5890 5889 5889 5889 5888 5887 5887 5886 5885 5885 5884 5884 5884 5884 5883 5883 5883 5882 5881 5881 5879 5875 5873 5877 5879 5880 5880 5880 5880 5880 5880 5880 5880 5880 5880 5880 5880
5892 5892 5891 5891 5890 5890 5889 5889 5889 5888 5888 5887 5887 5886 5885 5885 5884 5884 5884 5883 5883 5883 5882 5882 5881 5880 5879 5876 5875 5877 5878 5879 5879 5879 5879 5879 5879 5879 5879 5879 5879 5879 5879
5891 5891 5891 5890 5890 5889 5889 5888 5888 5888 5888 5887 5886 5886 5885 5884 5884 5883 5883 5883 5882 5882 5881 5881 5880 5880 5879 5878 5877 5878 5878 5878 5878 5878 5878 5878 5878 5878 5878 5878 5878 5878 5878
5891 5890 5890 5890 5889 5889 5888 5888 5888 5887 5887 5886 5886 5885 5884 5883 5883 5883 5882 5882 5882 5881 5881 5880 5880 5879 5879 5878 5878 5878 5878 5878 5878 5877 5877 5877 5877 5877 5877 5877 5877 5877 5877
5890 5890 5889 5889 5888 5888 5887 5887 5887 5886 5886 5885 5885 5884 5884 5883 5882 5882 5882 5881 5881 5880 5880 5880 5879 5879 5878 5878 5877 5877 5877 5877 5877 5877 5876 5876 5876 5876 5876 5876 5876 5876 5876
5889 5889 5888 5888 5888 5887 5887 5886 5886 5885 5885 5884 5884 5883 5883 5882 5882 5881 5880 5880 5880 5879 5879 5879 5878 5878 5877 5876 5876 5876 5876 5876 5876 5876 5875 5875 5875 5875 5875 5875 5875 5875 5875
5888 5888 5887 5887 5886 5886 5886 5885 5885 5884 5884 5884 5883 5882 5882 5881 5880 5880 5879 5879 5879 5878 5878 5878 5877 5876 5876 5875 5875 5875 5875 5875 5875 5875 5874 5874 5874 5874 5874 5874 5874 5874 5874
5887 5887 5886 5886 5886 5885 5885 5884 5884 5884 5883 5882 5882 5881 5881 5880 5879 5879 5878 5878 5878 5877 5877 5876 5876 5875 5875 5874 5874 5874 5874 5874 5873 5873 5873 5873 5873 5873 5873 5873 5873 5873 5872
5886 5886 5885 5885 5885 5884 5884 5883 5883 5883 5882 5881 5881 5880 5879 5879 5878 5878 5877 5877 5876 5876 5876 5876 5875 5874 5874 5874 5873 5873 5873 5872 5872 5872 5872 5872 5872 5872 5872 5872 5871 5871 5871
5884 5884 5884 5884 5883 5883 5883 5882 5882 5881 5881 5880 5879 5879 5878 5878 5877 5876 5876 5875 5875 5875 5874 5874 5874 5873 5873 5873 5872 5872 5872 5871 5871 5871 5870 5870 5870 5870 5870 5870 5870 5870 5869
5883 5883 5883 5883 5882 5882 5881 5881 5881 5880 5880 5879 5878 5877 5877 5876 5876 5875 5874 5874 5874 5874 5873 5873 5872 5872 5872 5872 5871 5871 5870 5870 5870 5869 5869 5869 5869 5868 5868 5868 5868 5868 5867
5881 5881 5881 5881 5881 5881 5880 5880 5879 5879 5878 5877 5877 5876 5875 5875 5874 5874 5873 5872 5872 5872 5872 5871 5871 5871 5871 5870 5870 5869 5869 5869 5868 5868 5867 5867 5867 5867 5866 5866 5866 5866 5865
5880 5880 5880 5880 5879 5879 5879 5879 5878 5877 5877 5876 5875 5875 5874 5873 5873 5872 5872 5871 5871 5870 5870 5870 5869 5869 5869 5869 5868 5868 5867 5867 5867 5866 5866 5865 5865 5865 5864 5864 5864 5864 5864
5878 5878 5878 5878 5878 5878 5877 5877 5877 5876 5875 5875 5874 5873 5872 5872 5871 5870 5870 5869 5869 5869 5869 5868 5868 5868 5867 5867 5867 5866 5866 5866 5865 5865 5864 5864 5864 5863 5863 5863 5862 5862 5862
5875 5875 5876 5876 5876 5876 5876 5875 5875 5875 5874 5873 5872 5871 5871 5870 5869 5869 5868 5868 5867 5867 5867 5867 5867 5866 5866 5865 5865 5865 5864 5864 5864 5863 5863 5862 5862 5862 5861 5861 5861 5860 5860
5874 5874 5874 5874 5874 5874 5874 5873 5873 5873 5872 5871 5870 5870 5869 5868 5868 5867 5867 5866 5866 5865 5865 5865 5865 5865 5864 5864 5863 5863 5863 5863 5862 5862 5862 5861 5861 5860 5860 5859 5859 5858 5858
5872 5872 5872 5872 5871 5871 5871 5871 5871 5871 5870 5869 5869 5868 5867 5867 5866 5866 5865 5865 5864 5864 5864 5864 5863 5863 5863 5862 5862 5862 5861 5861 5861 5860 5860 5860 5859 5859 5858 5858 5857 5857 5856
5869 5869 5869 5869 5869 5869 5869 5869 5869 5868 5868 5867 5867 5866 5866 5865 5865 5864 5864 5863 5863 5863 5862 5862 5862 5861 5861 5861 5860 5860 5860 5860 5859 5859 5859 5858 5858 5857 5857 5856 5855 5854 5854
5867 5867 5867 5867 5867 5867 5867 5867 5867 5866 5866 5865 5865 5865 5864 5864 5863 5863 5862 5862 5862 5861 5861 5860 5860 5860 5859 5859 5859 5859 5859 5859 5858 5858 5857 5857 5856 5856 5855 5854 5853 5852 5851
5865 5864 5864 5864 5864 5864 5864 5864 5864 5864 5864 5863 5863 5863 5862 5862 5861 5861 5861 5860 5860 5860 5859 5859 5859 5859 5858 5857 5857 5857 5857 5857 5856 5856 5856 5855 5855 5854 5853 5852 5851 5850 5849
5862 5862 5862 5862 5862 5862 5862 5862 5862 5861 5861 5861 5861 5860 5860 5860 5859 5859 5859 5858 5858 5858 5857 5857 5857 5857 5856 5856 5856 5855 5855 5855 5855 5855 5854 5853 5853 5852 5851 5850 5849 5848 5847
5859 5859 5859 5859 5859 5859 5859 5859 5859 5859 5859 5858 5858 5858 5858 5857 5857 5857 5857 5856 5856 5856 5856 5855 5855 5855 5855 5854 5854 5853 5853 5853 5853 5852 5852 5851 5851 5850 5849 5848 5847 5846 5845
5856 5856 5856 5856 5856 5856 5856 5856 5856 5856 5856 5855 5855 5855 5855 5855 5855 5855 5854 5854 5854 5854 5854 5854 5853 5853 5853 5852 5852 5852 5851 5851 5850 5850 5850 5849 5848 5847 5846 5845 5844 5843 5842